KB7STN Weather Reports


Display with metric or nautical units.
time (UTC)temp
F
wind
direction
speed
MPH
gust
MPH
rain 1hr
in
rain 24hr
in
rain mn
in
humidity
%
barometer
mb
20260505171217 49 221 4.0 8.0 0.00 0.00 0.00 68 1000.7
20260505170719 49 220 3.0 7.0 0.00 0.00 0.00 68 1000.8
20260505170217 48 213 3.0 7.0 0.00 0.00 0.00 70 1000.7
20260505165717 48 217 3.0 8.0 0.00 0.00 0.00 71 1000.8
20260505165217 48 206 4.0 7.0 0.00 0.00 0.00 72 1000.8
20260505164717 48 193 4.0 7.0 0.00 0.00 0.00 73 1000.7
20260505164217 48 205 3.0 6.0 0.00 0.00 0.00 74 1000.7
20260505163717 47 159 3.0 7.0 0.00 0.00 0.00 74 1000.7
20260505163217 47 182 3.0 6.0 0.00 0.00 0.00 74 1000.8
20260505162717 47 179 3.0 5.0 0.00 0.00 0.00 74 1000.8
20260505162217 47 173 4.0 7.0 0.00 0.00 0.00 73 1000.9
20260505161717 47 177 4.0 7.0 0.00 0.00 0.00 72 1000.9
20260505161217 48 161 4.0 10.0 0.00 0.00 0.00 71 1000.9
20260505160717 48 198 4.0 7.0 0.00 0.00 0.00 70 1000.9
20260505160217 48 163 4.0 7.0 0.00 0.00 0.00 70 1000.9
20260505153308 48 221 4.0 9.0 0.00 0.00 0.00 68 1000.2
20260505152717 48 179 4.0 7.0 0.00 0.00 0.00 67 1000.2
20260505152217 49 185 4.0 9.0 0.00 0.00 0.00 66 1000.2
20260505151717 49 177 3.0 7.0 0.00 0.00 0.00 66 1000.1
20260505151217 49 206 3.0 5.0 0.00 0.00 0.00 66 1000.1
20260505150717 49 209 3.0 7.0 0.00 0.00 0.00 65 1000.0
20260505150217 49 202 2.0 5.0 0.00 0.00 0.00 64 1000.1
20260505140217 50 221 2.0 7.0 0.00 0.00 0.00 59 999.6
20260505130217 52 223 2.0 4.0 0.00 0.00 0.00 58 998.5
20260505124717 52 224 2.0 4.0 0.00 0.00 0.00 55 998.2
20260505124217 52 224 2.0 5.0 0.00 0.00 0.00 57 998.2
20260505123717 52 226 2.0 6.0 0.00 0.00 0.00 59 998.1
20260505123217 52 227 2.0 6.0 0.00 0.00 0.00 62 998.0
20260505122717 52 212 1.0 3.0 0.00 0.00 0.00 63 998.0
20260505122217 52 212 1.0 5.0 0.00 0.00 0.00 64 998.0
20260505121717 52 211 1.0 3.0 0.00 0.00 0.00 66 998.1
20260505121217 52 211 1.0 4.0 0.00 0.00 0.00 66 998.2
20260505120717 52 211 1.0 3.0 0.00 0.00 0.00 65 998.3
20260505120217 52 212 1.0 2.0 0.00 0.00 0.00 63 998.3
20260505115717 52 212 1.0 3.0 0.00 0.00 0.00 63 998.4
20260505115217 53 212 1.0 3.0 0.00 0.00 0.00 62 998.4
20260505114717 53 212 1.0 4.0 0.00 0.00 0.00 60 998.4
20260505114217 53 212 1.0 4.0 0.00 0.00 0.00 60 998.4
20260505113717 53 212 0.0 3.0 0.00 0.00 0.00 59 998.4
20260505113217 53 212 0.0 0.0 0.00 0.00 0.00 58 998.4
20260505112717 53 212 0.0 2.0 0.00 0.00 0.00 57 998.4
20260505112217 53 212 0.0 0.0 0.00 0.00 0.00 58 998.4
20260505111717 53 212 0.0 0.0 0.00 0.00 0.00 58 998.3
20260505111217 53 212 0.0 2.0 0.00 0.00 0.00 58 998.3
20260505110718 53 212 0.0 2.0 0.00 0.00 0.00 58 998.3
20260505110217 53 212 0.0 1.0 0.00 0.00 0.00 58 998.2
20260505102218 54 230 1.0 4.0 0.00 0.00 0.00 57 998.1
20260505101718 54 213 2.0 4.0 0.00 0.00 0.00 57 998.2
20260505101218 53 217 2.0 4.0 0.00 0.00 0.00 57 998.1
20260505100718 53 211 1.0 5.0 0.00 0.00 0.00 57 998.2
20260505100218 53 185 1.0 4.0 0.00 0.00 0.00 58 998.2
20260505095718 53 186 1.0 3.0 0.00 0.00 0.00 59 998.2
20260505095218 53 185 2.0 4.0 0.00 0.00 0.00 60 998.1
20260505094718 53 187 2.0 4.0 0.00 0.00 0.00 60 998.2
20260505094218 53 188 1.0 5.0 0.00 0.00 0.00 61 998.2
20260505093718 53 187 1.0 3.0 0.00 0.00 0.00 62 998.1
20260505093218 53 187 1.0 3.0 0.00 0.00 0.00 62 998.1
20260505092718 53 187 2.0 4.0 0.00 0.00 0.00 62 998.0
20260505092218 53 187 2.0 4.0 0.00 0.00 0.00 62 998.0
20260505091718 53 187 2.0 4.0 0.00 0.00 0.00 62 998.0
20260505091218 53 186 2.0 4.0 0.00 0.00 0.00 63 998.0
20260505090718 53 186 2.0 5.0 0.00 0.00 0.00 63 998.0
20260505090218 53 186 2.0 4.0 0.00 0.00 0.00 64 998.0
20260505085718 53 186 2.0 3.0 0.00 0.00 0.00 64 998.0
20260505085218 53 186 2.0 4.0 0.00 0.00 0.00 64 998.0
20260505084718 53 185 2.0 5.0 0.00 0.00 0.00 64 998.1
20260505084218 53 184 2.0 6.0 0.00 0.00 0.00 64 998.1
20260505083718 53 182 2.0 4.0 0.00 0.00 0.00 64 998.2
20260505083218 53 173 1.0 4.0 0.00 0.00 0.00 65 998.2
20260505082718 53 169 1.0 6.0 0.00 0.00 0.00 66 998.2
20260505082218 53 181 1.0 3.0 0.00 0.00 0.00 66 998.1
20260505081718 53 181 1.0 3.0 0.00 0.00 0.00 66 998.2
20260505081218 53 181 0.0 3.0 0.00 0.00 0.00 66 998.2
20260505080718 53 182 0.0 4.0 0.00 0.00 0.00 65 998.2
20260505080218 53 182 1.0 3.0 0.00 0.00 0.00 64 998.1
20260505075718 53 182 1.0 8.0 0.00 0.00 0.00 63 998.2
20260505075218 53 245 1.0 3.0 0.00 0.00 0.00 60 998.3
20260505074718 53 245 2.0 5.0 0.00 0.00 0.00 60 998.3
20260505074218 53 245 1.0 6.0 0.00 0.00 0.00 60 998.3
20260505073718 53 246 2.0 4.0 0.00 0.00 0.00 61 998.3
20260505073218 53 246 2.0 6.0 0.00 0.00 0.00 60 998.3
20260505072718 53 247 1.0 3.0 0.00 0.00 0.00 60 998.3
20260505072218 53 247 2.0 6.0 0.00 0.00 0.00 59 998.4
20260505071718 53 248 2.0 7.0 0.00 0.00 0.00 59 998.4
20260505071218 54 246 2.0 4.0 0.00 0.00 0.00 58 998.3
20260505070718 54 246 2.0 6.0 0.00 0.00 0.00 58 998.4
20260505070218 54 246 2.0 4.0 0.00 0.00 0.00 58 998.4
20260505065718 54 246 2.0 7.0 0.00 0.00 0.00 58 998.3
20260505065218 54 254 3.0 9.0 0.00 0.00 0.00 57 998.3
20260505064718 54 258 3.0 6.0 0.00 0.00 0.00 57 998.3
20260505064218 54 269 3.0 8.0 0.00 0.00 0.00 56 998.2
20260505063718 54 224 3.0 7.0 0.00 0.00 0.00 57 998.2
20260505063218 54 248 3.0 7.0 0.00 0.00 0.00 57 998.1
20260505062718 54 259 3.0 9.0 0.00 0.00 0.00 58 998.0
20260505062218 53 261 3.0 7.0 0.00 0.00 0.00 60 998.1
20260505061718 54 194 3.0 6.0 0.00 0.00 0.00 60 998.1
20260505061218 53 186 2.0 6.0 0.00 0.00 0.00 61 998.2
20260505060718 53 202 3.0 5.0 0.00 0.00 0.00 61 998.1
20260505060218 53 169 3.0 8.0 0.00 0.00 0.00 63 998.2
20260505055718 53 181 4.0 9.0 0.00 0.00 0.00 62 998.3
20260505055218 54 232 3.0 8.0 0.00 0.00 0.00 61 998.2
20260505054718 54 251 3.0 8.0 0.00 0.00 0.00 61 998.2
20260505054218 54 263 4.0 7.0 0.00 0.00 0.00 61 998.1
20260505053718 54 268 4.0 12.0 0.00 0.00 0.00 60 997.9
20260505053218 54 254 4.0 9.0 0.00 0.00 0.00 60 997.8
20260505052718 55 229 4.0 9.0 0.00 0.00 0.00 59 997.7
20260505052218 55 221 5.0 11.0 0.00 0.00 0.00 58 997.7
20260505051718 55 267 4.0 10.0 0.00 0.00 0.00 57 997.8
20260505051219 55 196 4.0 9.0 0.00 0.00 0.00 57 997.7
20260505050718 55 261 4.0 9.0 0.00 0.00 0.00 57 997.6
20260505050218 55 205 4.0 11.0 0.00 0.00 0.00 57 997.5
20260505041718 60 162 3.0 9.0 0.00 0.00 0.00 45 996.9
20260505041218 60 227 3.0 5.0 0.00 0.00 0.00 42 996.8
20260505040718 60 238 3.0 6.0 0.00 0.00 0.00 42 996.7
20260505040218 60 252 4.0 8.0 0.00 0.00 0.00 42 996.7
20260505035718 60 213 3.0 8.0 0.00 0.00 0.00 42 996.7
20260505035218 60 250 2.0 8.0 0.00 0.00 0.00 41 996.6
20260505034718 60 268 2.0 10.0 0.00 0.00 0.00 41 996.5
20260505034218 60 212 2.0 10.0 0.00 0.00 0.00 41 996.4
20260505033718 60 258 2.0 7.0 0.00 0.00 0.00 41 996.4
20260505033218 60 246 2.0 8.0 0.00 0.00 0.00 41 996.4
20260505032718 60 251 2.0 7.0 0.00 0.00 0.00 42 996.2
20260505032218 60 168 2.0 6.0 0.00 0.00 0.00 43 996.2
20260505031718 60 214 3.0 6.0 0.00 0.00 0.00 44 996.2
20260505031218 60 177 3.0 7.0 0.00 0.00 0.00 44 996.0
20260505030718 60 209 3.0 7.0 0.00 0.00 0.00 44 995.9
20260505030218 60 244 2.0 3.0 0.00 0.00 0.00 44 995.9
20260505025718 60 250 2.0 7.0 0.00 0.00 0.00 45 996.1
20260505025218 60 252 3.0 8.0 0.00 0.00 0.00 44 996.1
20260505024718 61 252 2.0 6.0 0.00 0.00 0.00 44 996.0
20260505024218 61 253 2.0 5.0 0.00 0.00 0.00 43 996.0
20260505023718 61 254 2.0 6.0 0.00 0.00 0.00 44 995.9
20260505023218 61 254 2.0 5.0 0.00 0.00 0.00 44 995.9
20260505022718 61 254 2.0 4.0 0.00 0.00 0.00 43 995.9
20260505022218 62 254 2.0 5.0 0.00 0.00 0.00 42 995.9
20260505021718 62 254 2.0 5.0 0.00 0.00 0.00 41 995.9
20260505021218 62 255 2.0 4.0 0.00 0.00 0.00 41 995.9
20260505020718 62 255 2.0 4.0 0.00 0.00 0.00 41 995.8
20260505020218 62 255 2.0 5.0 0.00 0.00 0.00 41 995.8
20260505015718 63 255 2.0 6.0 0.00 0.00 0.00 41 995.9
20260505015218 63 256 3.0 6.0 0.00 0.00 0.00 41 995.9
20260505014718 64 257 3.0 7.0 0.00 0.00 0.00 39 995.8
20260505014218 65 257 2.0 7.0 0.00 0.00 0.00 39 995.7
20260505013718 66 257 0.0 6.0 0.00 0.00 0.00 33 995.8
20260505013218 66 257 0.0 4.0 0.00 0.00 0.00 33 995.7
20260505012718 66 257 0.0 3.0 0.00 0.00 0.00 32 995.7
20260505012218 67 257 0.0 5.0 0.00 0.00 0.00 32 995.8
20260505011718 67 257 0.0 3.0 0.00 0.00 0.00 32 995.9
20260505011218 67 257 0.0 0.0 0.00 0.00 0.00 32 995.8
20260505010718 68 257 0.0 2.0 0.00 0.00 0.00 32 995.8
20260505010218 68 257 0.0 3.0 0.00 0.00 0.00 33 995.7
20260505005718 68 257 0.0 0.0 0.00 0.00 0.00 33 995.7
20260505005218 68 257 0.0 0.0 0.00 0.00 0.00 32 995.8
20260505004719 68 257 0.0 0.0 0.00 0.00 0.00 32 995.8
20260505004219 67 257 0.0 0.0 0.00 0.00 0.00 34 995.8
20260505003719 67 257 0.0 0.0 0.00 0.00 0.00 34 995.9
20260505003218 66 257 0.0 0.0 0.00 0.00 0.00 34 995.9
20260505002718 66 257 0.0 0.0 0.00 0.00 0.00 32 995.9
20260505002219 66 257 0.0 0.0 0.00 0.00 0.00 34 995.9
20260505001719 66 257 0.0 0.0 0.00 0.00 0.00 34 996.0
20260505001219 66 257 0.0 0.0 0.00 0.00 0.00 35 996.0
20260505000719 66 257 0.0 0.0 0.00 0.00 0.00 34 996.1
20260505000219 66 257 0.0 0.0 0.00 0.00 0.00 35 996.0
20260504235719 66 257 0.0 0.0 0.00 0.00 0.00 35 996.0
20260504235219 65 257 0.0 0.0 0.00 0.00 0.00 34 996.0
20260504234719 65 257 1.0 2.0 0.00 0.00 0.00 34 996.1
20260504234219 65 257 1.0 3.0 0.00 0.00 0.00 36 996.0
20260504233719 65 257 2.0 4.0 0.00 0.00 0.00 35 996.1
20260504233219 65 259 3.0 6.0 0.00 0.00 0.00 35 996.1
20260504232719 65 263 1.0 6.0 0.00 0.00 0.00 36 996.0
20260504232219 65 276 1.0 1.0 0.00 0.00 0.00 34 996.2
20260504231719 65 276 2.0 4.0 0.00 0.00 0.00 33 996.1
20260504231219 65 276 4.0 11.0 0.00 0.00 0.00 32 996.2
20260504230719 66 278 3.0 9.0 0.00 0.00 0.00 32 996.2
20260504230219 66 277 3.0 8.0 0.00 0.00 0.00 32 996.2
20260504225719 67 277 2.0 11.0 0.00 0.00 0.00 31 996.3
20260504225219 68 278 2.0 6.0 0.00 0.00 0.00 32 996.3
20260504224719 68 278 2.0 4.0 0.00 0.00 0.00 31 996.2
20260504224219 69 278 2.0 7.0 0.00 0.00 0.00 31 996.2
20260504223719 69 278 1.0 4.0 0.00 0.00 0.00 33 996.1
20260504223219 68 278 1.0 4.0 0.00 0.00 0.00 33 996.1
20260504222719 68 278 0.0 3.0 0.00 0.00 0.00 34 996.0
20260504222219 67 278 1.0 3.0 0.00 0.00 0.00 32 995.9
20260504221719 66 278 1.0 2.0 0.00 0.00 0.00 35 995.9
20260504221219 66 278 1.0 4.0 0.00 0.00 0.00 35 996.0
20260504220719 66 278 1.0 4.0 0.00 0.00 0.00 36 996.0
20260504220219 66 278 1.0 4.0 0.00 0.00 0.00 36 996.1
20260504215719 65 278 2.0 3.0 0.00 0.00 0.00 40 996.1
20260504215219 65 278 2.0 6.0 0.00 0.00 0.00 38 996.3
20260504214719 65 278 1.0 4.0 0.00 0.00 0.00 41 996.4
20260504214219 65 278 1.0 4.0 0.00 0.00 0.00 42 996.4
20260504213719 64 278 2.0 5.0 0.00 0.00 0.00 41 996.4
20260504213219 63 278 2.0 5.0 0.00 0.00 0.00 41 996.5
20260504212719 63 278 3.0 8.0 0.00 0.00 0.00 41 996.5
20260504212219 62 278 3.0 6.0 0.00 0.00 0.00 43 996.5
20260504211719 62 278 3.0 11.0 0.00 0.00 0.00 42 996.5
20260504211219 62 279 4.0 9.0 0.00 0.00 0.00 42 996.6
20260504210719 62 279 5.0 9.0 0.00 0.00 0.00 41 996.7
20260504210219 63 284 4.0 14.0 0.00 0.00 0.00 40 996.9
20260504205719 63 274 3.0 12.0 0.00 0.00 0.00 39 996.8
20260504205219 63 278 3.0 7.0 0.00 0.00 0.00 39 996.8
20260504204719 63 278 3.0 6.0 0.00 0.00 0.00 38 996.8
20260504204219 63 278 4.0 9.0 0.00 0.00 0.00 37 996.7
20260504203719 64 278 3.0 8.0 0.00 0.00 0.00 36 996.7
20260504203219 64 279 3.0 8.0 0.00 0.00 0.00 36 996.7
20260504202719 64 279 2.0 7.0 0.00 0.00 0.00 36 996.8
20260504202219 64 280 2.0 7.0 0.00 0.00 0.00 35 996.9
20260504201719 64 280 3.0 9.0 0.00 0.00 0.00 35 996.7
20260504201219 65 281 2.0 7.0 0.00 0.00 0.00 35 996.7
20260504200719 65 283 2.0 6.0 0.00 0.00 0.00 35 996.7
20260504200219 66 281 2.0 8.0 0.00 0.00 0.00 36 996.7
20260504195719 67 298 2.0 6.0 0.00 0.00 0.00 35 996.7
20260504195219 67 355 1.0 6.0 0.00 0.00 0.00 33 996.7
20260504194719 68 225 0.0 6.0 0.00 0.00 0.00 32 996.8
20260504194219 68 157 0.0 0.0 0.00 0.00 0.00 32 996.8
20260504193719 68 156 0.0 0.0 0.00 0.00 0.00 31 996.7
20260504193219 68 156 0.0 0.0 0.00 0.00 0.00 32 996.8
20260504192719 69 156 0.0 1.0 0.00 0.00 0.00 30 997.0
20260504192219 69 156 0.0 4.0 0.00 0.00 0.00 31 996.9
20260504191719 69 156 0.0 3.0 0.00 0.00 0.00 32 996.9
20260504191219 69 156 1.0 3.0 0.00 0.00 0.00 32 996.9
20260504190719 69 156 1.0 2.0 0.00 0.00 0.00 33 996.9
20260504190219 69 157 1.0 6.0 0.00 0.00 0.00 32 997.1
20260504185719 69 156 1.0 6.0 0.00 0.00 0.00 31 997.2
20260504185219 69 184 1.0 3.0 0.00 0.00 0.00 32 997.1
20260504184719 69 186 1.0 4.0 0.00 0.00 0.00 31 997.1
20260504184219 70 184 2.0 2.0 0.00 0.00 0.00 32 997.2
20260504183719 70 184 3.0 6.0 0.00 0.00 0.00 31 997.2
20260504183219 71 165 3.0 6.0 0.00 0.00 0.00 32 997.1
20260504182719 71 172 2.0 5.0 0.00 0.00 0.00 32 997.1
20260504182219 71 180 1.0 8.0 0.00 0.00 0.00 31 997.2
20260504181719 71 204 0.0 0.0 0.00 0.00 0.00 33 997.4
20260504181219 71 204 1.0 5.0 0.00 0.00 0.00 31 997.5
20260504180719 70 207 1.0 3.0 0.00 0.00 0.00 32 997.5
20260504180219 70 190 1.0 3.0 0.00 0.00 0.00 31 997.5
20260504175719 70 184 2.0 5.0 0.00 0.00 0.00 33 997.5
20260504175219 70 202 2.0 6.0 0.00 0.00 0.00 33 997.6
20260504174719 70 212 2.0 3.0 0.00 0.00 0.00 33 997.6
20260504174219 70 215 3.0 6.0 0.00 0.00 0.00 33 997.7
20260504173719 69 212 3.0 6.0 0.00 0.00 0.00 34 997.7
20260504173219 69 175 2.0 6.0 0.00 0.00 0.00 36 997.8
20260504172719 69 185 2.0 5.0 0.00 0.00 0.00 35 997.9
20260504172219 69 186 2.0 5.0 0.00 0.00 0.00 35 998.0
20260504171719 68 188 2.0 4.0 0.00 0.00 0.00 35 998.1
20260504171219 68 187 3.0 6.0 0.00 0.00 0.00 36 998.0